This is the latest recevied weather packets stored in our database for station/object HS3MXC-2. If no packets are shown the sender has not sent any weather packets the latest 10 day(s).
| Time | Temp. | Humidity | Pressure | Rain* | Wind** | Luminosity | Snow |
|---|---|---|---|---|---|---|---|
| 1777960583 | 26.67° C | 47% | 996.1 hPa | - | - | - | - |
| 1777960276 | 27.22° C | 50% | 996.2 hPa | - | - | - | - |
| 1777959962 | 28.89° C | 53% | 996.4 hPa | - | - | - | - |
| 1777959655 | 30.56° C | 53% | 996.5 hPa | - | - | - | - |
| 1777959040 | 31.11° C | 53% | 996.8 hPa | - | - | - | - |
| 1777958731 | 30.56° C | 56% | 996.9 hPa | - | - | - | - |
| 1777958423 | 30.56° C | 61% | 997 hPa | - | - | - | - |
| 1777958117 | 30.56° C | 58% | 997.1 hPa | - | - | - | - |
| 1777957810 | 29.44° C | 63% | 997.1 hPa | - | - | - | - |
| 1777957501 | 26.67° C | 40% | 997.1 hPa | - | - | - | - |
| 1777957195 | 26.11° C | 41% | 997.1 hPa | - | - | - | - |
| 1777956270 | 26.67° C | 43% | 997.5 hPa | - | - | - | - |
| 1777955962 | 26.11° C | 43% | 997.6 hPa | - | - | - | - |
| 1777955652 | 26.11° C | 43% | 997.8 hPa | - | - | - | - |
| 1777955035 | 25.56° C | 40% | 997.9 hPa | - | - | - | - |
| 1777954727 | 25.56° C | 40% | 998 hPa | - | - | - | - |
| 1777954420 | 25.56° C | 40% | 998 hPa | - | - | - | - |
| 1777953805 | 25.56° C | 41% | 998.1 hPa | - | - | - | - |
| 1777952878 | 25° C | 41% | 998.2 hPa | - | - | - | - |
| 1777952572 | 25° C | 42% | 998.2 hPa | - | - | - | - |
| 1777951954 | 25° C | 45% | 998.3 hPa | - | - | - | - |
| 1777951339 | 23.89° C | 48% | 998.3 hPa | - | - | - | - |
| 1777951032 | 24.44° C | 50% | 998.3 hPa | - | - | - | - |
| 1777950419 | 24.44° C | 50% | 998.4 hPa | - | - | - | - |
| 1777949180 | 26.11° C | 54% | 998.3 hPa | - | - | - | - |
* Rain since midnight (hover to see other rain measurements)
** Current wind speed in m/s (hover to see current wind gust speed)